[[{"header":{"parameterUnit":"m.s-1","parameterCategory":1,"la1":30.2991,"la2":30.254,"lo1":-89.0895,"lo2":-89.0444,"dy":0.0017,"dx":0.0017,"nx":28,"ny":28,"refTime":"2024-07-25T03:00:00:Z","depth":0,"parameterNumber":2,"parameterNumberName":"U-component_of_WINDS"},"data":[0,0,0,0,0,0,0,0,0,0,0,0,0,0,0,0,0,0,0,0,0,0,0,0,0,0,0,0,0,0,0,0,0,0,0,0,0,0,0,0,0,0,0,0,0,0,0,0,0,0,0,0,0,0,0,0,0,0,0.7257,0.7258,0,0.7374,0.7376,0.7377,0.7417,0.7416,0.7416,0.7415,0.7536,0.754,0.7544,0,0,0,0,0,0,0,0,0,0,0,0,0,0.7065,0.7069,0.7256,0.7258,0.7259,0.7374,0.7376,0.7377,0.7417,0.7416,0.7416,0.7415,0.7535,0.754,0.7544,0,0,0,0,0,0,0,0,0,0,0,0,0,0.7162,0.707,0.7256,0.7293,0.7297,0.7374,0.7376,0.7378,0.7417,0.7416,0.7416,0.7415,0.7534,0.7539,0.7545,0.7593,0,0,0.7561,0.7564,0,0,0,0,0,0,0,0,0.7157,0.7169,0.7286,0.7291,0.7296,0.738,0.7353,0.745,0.7417,0.7372,0.7415,0.7415,0.7485,0.7495,0.7518,0.7599,0.7604,0.7562,0.7565,0.7568,0.7569,0,0,0,0,0,0,0,0.715,0.7164,0.7303,0.7288,0.7294,0.7303,0.7316,0.7371,0.7431,0.7376,0.7379,0.7392,0.7488,0.7513,0.7521,0.7606,0.7562,0.7567,0.757,0.7572,0.773,0.7731,0,0,0,0,0,0,0.7137,0.7159,0.7299,0.7307,0.7223,0.7307,0.7322,0.7354,0.743,0.7441,0.7393,0.7394,0.7504,0.7515,0.7526,0.7587,0.7568,0.7573,0.7576,0.7729,0.773,0.7731,0,0,0,0,0,0,0.7133,0.7149,0.7295,0.7233,0.7253,0.7311,0.7347,0.7356,0.7382,0.7443,0.7454,0.7407,0.7504,0.7518,0.7576,0.7591,0.7575,0.758,0.7728,0.773,0.7731,0.7709,0,0,0,0,0,0,0.7127,0.7147,0.7167,0.7234,0.7256,0.7343,0.7348,0.7359,0.7391,0.7393,0.746,0.7471,0.7504,0.7567,0.7581,0.7599,0.7585,0.7727,0.7729,0.773,0.7708,0.7709,0.771,0,0,0,0,0,0.712,0.7156,0.7167,0.7184,0.7281,0.7343,0.7356,0.7394,0.7392,0.7412,0.7451,0.7468,0.7587,0.7573,0.7589,0.7608,0.7726,0.7728,0.773,0.7708,0.7709,0.771,0,0,0,0,0,0,0.709,0.7166,0.7179,0.7238,0.7284,0.735,0.7376,0.7394,0.7442,0.7442,0.7487,0.7502,0.7555,0.7588,0.757,0.7658,0.7658,0.7663,0.7635,0.7637,0.7637,0.7629,0.7589,0,0,0,0,0,0.709,0.7135,0.7198,0.7244,0.7266,0.7317,0.7346,0.7371,0.742,0.744,0.7484,0.7531,0.7579,0.761,0.7657,0.7713,0.7728,0.7734,0.7735,0.7735,0.7739,0.777,0.7773,0.7738,0.7738,0.7738,0,0,0.7091,0.7138,0.7163,0.7239,0.7278,0.7322,0.7333,0.738,0.7414,0.7447,0.7504,0.7537,0.7593,0.765,0.7677,0.7678,0.7752,0.7738,0.7738,0.7742,0.7773,0.7776,0.7779,0.7739,0.7739,0.7739,0,0,0.7116,0.7156,0.7198,0.7236,0.7294,0.7327,0.7337,0.74,0.7424,0.7481,0.7507,0.7547,0.7629,0.7667,0.7698,0.7735,0.7752,0.7749,0.7753,0.7782,0.7785,0.7788,0.78,0.7804,0.7753,0.7753,0.7753,0,0.711,0.7178,0.7217,0.7262,0.7294,0.7326,0.7368,0.7404,0.7474,0.7495,0.7496,0.7598,0.7639,0.7704,0.7713,0.7736,0.7749,0.7742,0.7782,0.7785,0.7788,0.78,0.7805,0.7752,0.7752,0.7752,0.7752,0,0.7167,0.7214,0.7241,0.7307,0.7342,0.7386,0.7431,0.7462,0.7483,0.7516,0.7574,0.7623,0.768,0.7698,0.772,0.7766,0.7765,0.7773,0.7773,0.779,0.7802,0.7807,0.7751,0.7751,0.7751,0.7751,0,0,0.7177,0.7263,0.7272,0.7302,0.7368,0.7405,0.7449,0.7505,0.753,0.7577,0.7615,0.7683,0.7691,0.7725,0.7751,0.7777,0.7802,0.7782,0.7784,0.7783,0.7855,0.7848,0.7853,0.7814,0.7815,0.7816,0.785,0,0.7209,0.729,0.7325,0.739,0.7433,0.7463,0.7502,0.7546,0.7578,0.7619,0.7654,0.7701,0.7707,0.7728,0.7755,0.7793,0.7817,0.7791,0.7849,0.7851,0.7834,0.786,0.7853,0.7883,0.7855,0.7856,0.7857,0,0.7258,0.7304,0.7373,0.7432,0.7451,0.7485,0.7538,0.7578,0.7628,0.7649,0.7686,0.7711,0.7759,0.7755,0.7821,0.7802,0.7828,0.785,0.7853,0.7859,0.7855,0.7866,0.7893,0.7898,0.7865,0.7864,0.7864,0,0.7257,0.7337,0.7388,0.7412,0.7483,0.7506,0.7536,0.7586,0.7617,0.7663,0.7683,0.7735,0.7763,0.7802,0.784,0.7834,0.7901,0.7902,0.792,0.7919,0.7933,0.7931,0.7964,0.795,0.795,0.795,0.795,0,0.7289,0.7329,0.7388,0.7419,0.7465,0.7505,0.755,0.7582,0.7626,0.7664,0.7693,0.7728,0.7776,0.7817,0.7847,0.7896,0.7909,0.7927,0.7934,0.7924,0.7922,0.7941,0.794,0.7951,0.7951,0.795,0.795,0,0.7296,0.7336,0.7394,0.7455,0.7472,0.7503,0.7555,0.7587,0.7619,0.7667,0.768,0.7731,0.7781,0.7822,0.7888,0.7908,0.7958,0.7967,0.7941,0.7945,0.7961,0.7958,0.8007,0.8015,0.7995,0.7996,0.7996,0,0.7313,0.7345,0.7409,0.7437,0.7466,0.751,0.7541,0.7582,0.7613,0.7672,0.7696,0.7747,0.7791,0.7868,0.7911,0.7961,0.7971,0.7984,0.7979,0.7967,0.797,0.7968,0.7971,0.7985,0.7985,0.7985,0.7985,0,0.734,0.7358,0.7402,0.7452,0.7488,0.753,0.7573,0.7593,0.7642,0.7675,0.7726,0.7759,0.7825,0.7876,0.793,0.7961,0.7981,0.7986,0.7993,0.7983,0.7966,0.7974,0.7942,0.7985,0.7985,0.7985,0.7985,0.7985,0.7352,0.7381,0.7431,0.7478,0.7514,0.7553,0.7585,0.7621,0.7664,0.772,0.7742,0.7793,0.7842,0.7916,0.7947,0.7988,0.7991,0.8001,0.8003,0.8005,0.8003,0.7959,0.7998,0.7998,0.7998,0.7998,0.7999,0,0.738,0.7413,0.7456,0.7514,0.7551,0.7566,0.7613,0.7643,0.7688,0.7731,0.7773,0.783,0.7879,0.7925,0.7976,0.8,0.801,0.8012,0.801,0.8017,0.7998,0.7987,0.8003,0.8003,0.8003,0.8003,0.8003,0.8003,0.7399,0.7448,0.7472,0.7539,0.7572,0.7622,0.7648,0.7684,0.7718,0.7781,0.7821,0.7851,0.7895,0.795,0.7995,0.8007,0.8024,0.8023,0.8038,0.8019,0.8019,0.8018,0.8007,0.8027,0.8027,0.8054,0.8054,0.8054]},{"header":{"parameterUnit":"m.s-1","parameterCategory":1,"la1":30.2991,"la2":30.254,"lo1":-89.0895,"lo2":-89.0444,"dy":0.0017,"dx":0.0017,"nx":28,"ny":28,"refTime":"2024-07-25T03:00:00:Z","depth":0,"parameterNumber":3,"parameterNumberName":"V-component_of_WINDS"},"data":[0,0,0,0,0,0,0,0,0,0,0,0,0,0,0,0,0,0,0,0,0,0,0,0,0,0,0,0,0,0,0,0,0,0,0,0,0,0,0,0,0,0,0,0,0,0,0,0,0,0,0,0,0,0,0,0,0,0,1.1052,1.1052,0,1.1046,1.1046,1.1046,1.099,1.0988,1.0987,1.0985,1.098,1.0981,1.0982,0,0,0,0,0,0,0,0,0,0,0,0,0,1.1017,1.1018,1.1052,1.1052,1.1052,1.1046,1.1046,1.1046,1.099,1.0988,1.0986,1.0985,1.0979,1.0981,1.0982,0,0,0,0,0,0,0,0,0,0,0,0,0,1.1024,1.1019,1.1053,1.1024,1.1021,1.1046,1.1046,1.1046,1.099,1.0988,1.0986,1.0984,1.0979,1.098,1.0982,1.1035,0,0,1.0987,1.0988,0,0,0,0,0,0,0,0,1.1024,1.1025,1.1028,1.1026,1.1023,1.1016,1.1031,1.1042,1.0991,1.1002,1.0985,1.0983,1.0994,1.0994,1.0997,1.1034,1.1034,1.0988,1.0989,1.0989,1.099,0,0,0,0,0,0,0,1.1023,1.1025,1.105,1.1028,1.1025,1.1011,1.101,1.1033,1.101,1.1001,1.0997,1.0997,1.0992,1.0996,1.0997,1.1034,1.0987,1.0989,1.099,1.0991,1.1113,1.1115,0,0,0,0,0,0,1.1027,1.1025,1.105,1.105,1.1018,1.1014,1.1012,1.1021,1.1009,1.1005,1.0998,1.0994,1.0994,1.0995,1.0996,1.1057,1.0989,1.0991,1.0992,1.1111,1.1114,1.1116,0,0,0,0,0,0,1.1026,1.103,1.105,1.1036,1.1038,1.1016,1.1026,1.1021,1.1025,1.1007,1.1003,1.1007,1.0992,1.0994,1.1025,1.1056,1.0992,1.0993,1.1108,1.1112,1.1115,1.1178,0,0,0,0,0,0,1.1026,1.103,1.1049,1.1037,1.1039,1.1079,1.1028,1.1023,1.1028,1.1023,1.1014,1.1011,1.0991,1.1023,1.1027,1.1057,1.0995,1.1105,1.111,1.1114,1.1173,1.1183,1.1192,0,0,0,0,0,1.1024,1.1068,1.1051,1.1054,1.1063,1.1081,1.1082,1.1058,1.1031,1.1051,1.1039,1.1011,1.1052,1.1027,1.1031,1.1062,1.1103,1.1109,1.1113,1.1169,1.1181,1.1192,0,0,0,0,0,0,1.1084,1.1066,1.1046,1.1087,1.1086,1.1072,1.1096,1.1072,1.1079,1.1073,1.1044,1.1042,1.1078,1.1073,1.1045,1.1112,1.1073,1.1079,1.1114,1.1125,1.1134,1.1135,1.0996,0,0,0,0,0,1.1102,1.1118,1.1101,1.1139,1.1139,1.1118,1.1125,1.1106,1.1104,1.1104,1.1094,1.1094,1.1106,1.1115,1.1126,1.1172,1.1169,1.1195,1.1205,1.1212,1.1218,1.1242,1.1253,1.1132,1.1132,1.1132,0,0,1.1139,1.1131,1.1143,1.115,1.1147,1.1165,1.1118,1.1138,1.1151,1.1107,1.1136,1.1129,1.1126,1.1165,1.1182,1.1162,1.1251,1.1219,1.1225,1.1226,1.1248,1.126,1.127,1.1136,1.1135,1.1135,0,0,1.1216,1.1211,1.1242,1.124,1.1236,1.1221,1.1229,1.1218,1.1212,1.124,1.1207,1.1222,1.1245,1.1244,1.1247,1.1323,1.1297,1.1327,1.1376,1.1399,1.1409,1.1417,1.1444,1.1454,1.1333,1.1333,1.1333,0,1.1263,1.1288,1.1261,1.1283,1.1288,1.1248,1.1279,1.1278,1.1278,1.1282,1.126,1.1287,1.1282,1.132,1.1339,1.1342,1.135,1.1328,1.1409,1.1418,1.1425,1.1451,1.1461,1.1337,1.1336,1.1336,1.1335,0,1.1345,1.1363,1.1388,1.1389,1.1396,1.1423,1.14,1.141,1.1391,1.1379,1.1408,1.1402,1.141,1.1418,1.1399,1.1453,1.1441,1.1415,1.1375,1.144,1.1464,1.1474,1.1342,1.1341,1.1339,1.1339,0,0,1.146,1.1445,1.1454,1.1454,1.1447,1.146,1.1485,1.1493,1.1502,1.1504,1.1524,1.1544,1.1519,1.1522,1.1503,1.1524,1.1585,1.1495,1.1495,1.1512,1.1644,1.1664,1.1676,1.1568,1.157,1.1571,1.1644,0,1.1533,1.1575,1.1551,1.1596,1.1612,1.1574,1.1596,1.1594,1.1584,1.1596,1.1584,1.1598,1.1565,1.1566,1.1585,1.1574,1.1611,1.1568,1.1587,1.1588,1.1589,1.1688,1.171,1.1779,1.1653,1.1655,1.1656,0,1.1625,1.163,1.1676,1.1665,1.1671,1.1691,1.1696,1.1709,1.1706,1.1696,1.17,1.1676,1.17,1.1661,1.1693,1.1665,1.1671,1.1666,1.1668,1.1669,1.1626,1.1692,1.18,1.1811,1.167,1.1669,1.1668,0,1.1704,1.1722,1.1752,1.1753,1.1741,1.1756,1.1752,1.1747,1.1753,1.1758,1.1761,1.1769,1.1773,1.178,1.1759,1.1732,1.1794,1.1753,1.1787,1.1788,1.1802,1.1802,1.1914,1.1806,1.1806,1.1806,1.1806,0,1.1788,1.1818,1.1787,1.1806,1.1838,1.181,1.1843,1.1835,1.1831,1.1848,1.1816,1.1832,1.1803,1.1816,1.18,1.1829,1.1832,1.1825,1.182,1.1828,1.1829,1.1832,1.1827,1.1809,1.1808,1.1808,1.1807,0,1.1882,1.1862,1.1892,1.1879,1.1876,1.1901,1.1889,1.1906,1.1892,1.1914,1.1917,1.1897,1.1911,1.1891,1.1903,1.1891,1.1932,1.192,1.1933,1.193,1.1965,1.1962,1.2083,1.2097,1.1981,1.1982,1.1983,0,1.1937,1.1959,1.1948,1.1957,1.1954,1.1968,1.1974,1.1948,1.1956,1.1954,1.1971,1.1982,1.199,1.2014,1.2001,1.201,1.1998,1.2039,1.1999,1.2006,1.1999,1.1998,1.2,1.2048,1.2049,1.205,1.2051,0,1.2038,1.2027,1.2037,1.2043,1.2051,1.2055,1.2057,1.2065,1.2038,1.2048,1.2062,1.2068,1.208,1.2092,1.2097,1.2093,1.2068,1.2064,1.2073,1.2081,1.2088,1.2084,1.1956,1.2062,1.2061,1.206,1.2059,1.2059,1.2114,1.2132,1.2127,1.2139,1.2137,1.2139,1.2154,1.2143,1.2153,1.2161,1.2145,1.2163,1.2159,1.2164,1.2162,1.2176,1.2158,1.217,1.2173,1.2177,1.2182,1.2085,1.2177,1.2177,1.2176,1.2176,1.2176,0,1.2213,1.2208,1.2219,1.2222,1.2231,1.2206,1.2207,1.2216,1.2232,1.2231,1.2239,1.2255,1.2266,1.2253,1.2262,1.2276,1.2264,1.2279,1.2278,1.2277,1.2198,1.219,1.2288,1.2288,1.2288,1.2288,1.2288,1.2288,1.2266,1.2295,1.2283,1.2311,1.2305,1.2322,1.2324,1.2326,1.2325,1.2344,1.2353,1.2344,1.2338,1.2346,1.2356,1.2352,1.2357,1.2375,1.2367,1.2294,1.2283,1.2272,1.2265,1.2376,1.2377,1.2445,1.2446,1.2446]}]]